AEE330 LGAV-LGSA

Flight info

Callsign AEE330
Flight time N/A
Altitude 23000
Route KEA L617 MIL Y144 RUSOS
Aircraft A20N/M-SDE2E3FGHIRWXY/LB1

Departure

Time N/A
Airport Athens Eleftherios Venizelos International Airport (LGAV)

Arrival

Time 2026-04-27 20:13
Airport Chania International Airport (LGSA)
Time Latitude Longitude Altitude Speed Heading
2026-04-27 19:57 35.53907 24.09546 1673 ft 151 kts 292°
2026-04-27 19:57 35.54293 24.08345 1951 ft 150 kts 295°
2026-04-27 19:57 35.54568 24.07110 2205 ft 153 kts 265°
2026-04-27 19:58 35.54341 24.05830 2345 ft 155 kts 261°
2026-04-27 19:58 35.54137 24.04522 2360 ft 159 kts 257°
2026-04-27 19:58 35.53838 24.03121 2402 ft 177 kts 255°
2026-04-27 19:58 35.53502 24.01648 2381 ft 180 kts 255°
2026-04-27 19:59 35.53202 24.00172 2368 ft 180 kts 259°
2026-04-27 19:59 35.52950 23.98652 2360 ft 180 kts 260°
2026-04-27 19:59 35.52733 23.97156 2360 ft 179 kts 268°
2026-04-27 19:59 35.52937 23.95673 2397 ft 177 kts 296°
2026-04-27 20:00 35.53729 23.94568 2382 ft 172 kts 329°
2026-04-27 20:00 35.54820 23.94078 2367 ft 167 kts 356°
2026-04-27 20:00 35.55968 23.94104 2364 ft 164 kts 14°
2026-04-27 20:00 35.57030 23.94563 2351 ft 157 kts 27°
2026-04-27 20:01 35.57933 23.95276 2346 ft 154 kts 46°
2026-04-27 20:01 35.58550 23.96347 2356 ft 154 kts 65°
2026-04-27 20:01 35.58713 23.97630 2356 ft 156 kts 94°
2026-04-27 20:01 35.58402 23.98919 2361 ft 157 kts 111°
2026-04-27 20:02 35.57956 24.00152 2358 ft 157 kts 111°
2026-04-27 20:02 35.57523 24.01370 2356 ft 157 kts 111°
2026-04-27 20:02 35.57096 24.02608 2357 ft 157 kts 109°
2026-04-27 20:02 35.56743 24.03873 2356 ft 154 kts 104°
2026-04-27 20:03 35.56425 24.05064 2153 ft 144 kts 109°
2026-04-27 20:03 35.56044 24.06194 1840 ft 141 kts 109°
2026-04-27 20:03 35.55687 24.07303 1517 ft 145 kts 110°
2026-04-27 20:03 35.55311 24.08492 1265 ft 151 kts 110°
2026-04-27 20:04 35.54916 24.09646 1033 ft 142 kts 111°
2026-04-27 20:04 35.54582 24.10749 756 ft 136 kts 110°
2026-04-27 20:04 35.54215 24.11854 677 ft 133 kts 112°
2026-04-27 20:04 35.53971 24.12571 606 ft 145 kts 112°
2026-04-27 20:05 35.53466 24.14109 489 ft 142 kts 110°
2026-04-27 20:05 35.53112 24.15169 464 ft 125 kts 113°
2026-04-27 20:05 35.52770 24.16243 498 ft 157 kts 111°
2026-04-27 20:05 35.52348 24.17538 1032 ft 166 kts 111°
2026-04-27 20:06 35.51952 24.18721 1654 ft 161 kts 111°
2026-04-27 20:06 35.51740 24.19349 1819 ft 158 kts 111°
2026-04-27 20:06 35.51317 24.20590 1951 ft 157 kts 111°
2026-04-27 20:06 35.50895 24.21816 1952 ft 156 kts 111°
2026-04-27 20:07 35.50469 24.23051 1981 ft 156 kts 111°
2026-04-27 20:07 35.50008 24.24273 1967 ft 159 kts 118°
2026-04-27 20:07 35.49291 24.25407 1992 ft 176 kts 132°
2026-04-27 20:07 35.48383 24.26432 1979 ft 180 kts 136°
2026-04-27 20:08 35.47428 24.27443 1968 ft 181 kts 137°
2026-04-27 20:08 35.46411 24.28382 1967 ft 182 kts 139°
2026-04-27 20:08 35.45736 24.29576 1926 ft 164 kts 101°
2026-04-27 20:08 35.45740 24.30919 1943 ft 153 kts 77°
2026-04-27 20:09 35.46275 24.31996 1934 ft 149 kts 37°
2026-04-27 20:09 35.47192 24.32573 1975 ft 150 kts 23°
2026-04-27 20:09 35.48167 24.32959 1954 ft 145 kts
2026-04-27 20:09 35.49117 24.32629 1951 ft 149 kts 322°
2026-04-27 20:10 35.49763 24.31612 1971 ft 153 kts 299°
2026-04-27 20:10 35.50103 24.30368 1963 ft 155 kts 277°
2026-04-27 20:10 35.50076 24.29046 1971 ft 156 kts 266°
2026-04-27 20:10 35.49967 24.27719 1968 ft 155 kts 265°
2026-04-27 20:11 35.49855 24.26415 1964 ft 155 kts 268°
2026-04-27 20:11 35.49881 24.25092 1926 ft 154 kts 277°
2026-04-27 20:11 35.50088 24.23816 1830 ft 152 kts 289°
2026-04-27 20:11 35.50461 24.22607 1777 ft 152 kts 295°
2026-04-27 20:12 35.50893 24.21423 1588 ft 152 kts 297°
2026-04-27 20:12 35.51200 24.20634 1354 ft 151 kts 297°
2026-04-27 20:12 35.51800 24.19103 886 ft 147 kts 293°
2026-04-27 20:12 35.52184 24.17961 667 ft 146 kts 292°
2026-04-27 20:13 35.52571 24.16810 557 ft 145 kts 291°
2026-04-27 20:13 35.52946 24.15665 496 ft 145 kts 291°
2026-04-27 20:13 35.53313 24.14541 452 ft 131 kts 291°
2026-04-27 20:13 35.53521 24.13862 439 ft 39 kts 292°
2026-04-27 20:14 35.53625 24.13579 431 ft 31 kts 301°
2026-04-27 20:14 35.53720 24.13464 425 ft 15 kts
2026-04-27 20:14 35.53818 24.13543 418 ft 18 kts 80°
2026-04-27 20:14 35.53796 24.13662 421 ft 0 kts 108°
2026-04-27 20:15 35.53796 24.13663 421 ft 1 kts 108°
2026-04-27 20:15 35.53777 24.13756 423 ft 12 kts 84°
2026-04-27 20:15 35.53843 24.13837 418 ft 15 kts 37°
2026-04-27 20:15 35.53914 24.13885 415 ft 2 kts 21°